This demonstration page uses our WeatherBlox Daily Observations layout. Learn more.

39.29038, -76.61219

Hourly Observations for February 17, 2020

Temp ( °F °C ) Dew Point ( °F °C ) Humidity (%) Winds ( mph kmh ) Pressure ( in mb ) Visibility ( mi km ) Precip ( " mm )
12:54 am 00:54 undefined 43 6.1 29 -1.7 58 58 undefined N/A 30.12 1020 N/A 0 0
1:54 am 01:54 undefined 44 6.7 28 -2.2 53 53 undefined N/A 30.13 1020 N/A 0 0
2:54 am 02:54 undefined 44 6.7 27 -2.8 51 51 undefined N/A 30.13 1020 N/A 0 0
3:54 am 03:54 undefined 43 6.1 27 -2.8 53 53 undefined N/A 30.14 1021 N/A 0 0
4:54 am 04:54 undefined 43 6.1 28 -2.2 56 56 undefined N/A 30.16 1022 N/A 0 0
5:54 am 05:54 undefined 41 5 28 -2.2 60 60 undefined N/A 30.19 1022 N/A 0 0
6:54 am 06:54 undefined 41 5 28 -2.2 60 60 undefined N/A 30.22 1023 N/A 0 0
7:54 am 07:54 undefined 41 5 28 -2.2 60 60 undefined N/A 30.25 1024 N/A 0 0
8:54 am 08:54 undefined 43 6.1 29 -1.7 58 58 undefined N/A 30.27 1025 N/A 0 0
9:54 am 09:54 undefined 45 7.2 27 -2.8 49 49 undefined N/A 30.27 1025 N/A 0 0
10:54 am 10:54 undefined 48 8.9 27 -2.8 44 44 undefined N/A 30.29 1026 N/A 0 0
11:54 am 11:54 undefined 50 10 24 -4.4 36 36 undefined N/A 30.28 1025 N/A 0 0
12:54 pm 12:54 undefined 53 11.7 27 -2.8 37 37 undefined N/A 30.27 1025 N/A 0 0
1:54 pm 13:54 undefined 53 11.7 30 -1.1 41 41 undefined N/A 30.26 1025 N/A 0 0
2:54 pm 14:54 undefined 52 11.1 28 -2.2 40 40 undefined N/A 30.26 1025 N/A 0 0
3:54 pm 15:54 undefined 50 10 27 -2.8 41 41 undefined N/A 30.25 1024 N/A 0 0
4:54 pm 16:54 undefined 49 9.4 26 -3.3 41 41 undefined N/A 30.26 1025 N/A 0 0
5:54 pm 17:54 undefined 48 8.9 25 -3.9 41 41 undefined N/A 30.28 1025 N/A 0 0
6:54 pm 18:54 undefined 48 8.9 25 -3.9 41 41 undefined N/A 30.28 1026 N/A 0 0
7:54 pm 19:54 undefined 47 8.3 25 -3.9 42 42 undefined N/A 30.29 1026 N/A 0 0
8:54 pm 20:54 undefined 45 7.2 26 -3.3 48 48 undefined N/A 30.3 1026 N/A 0 0
9:54 pm 21:54 undefined 45 7.2 25 -3.9 46 46 undefined N/A 30.3 1026 N/A 0 0
10:54 pm 22:54 undefined 44 6.7 31 -0.6 60 60 undefined N/A 30.3 1026 N/A 0 0
11:54 pm 23:54 undefined 43 6.1 32 0 65 65 undefined N/A 30.3 1026 N/A 0 0

Powered by AerisWeather